Tracking 17155 objects as of 30-July-2015
HD Live streaming from Space Station

ECHOSTAR 1

Track ECHOSTAR 1 now!
ECHOSTAR 1 is classified as:


NORAD ID: 23754
Int'l Code: 1995-073A
Perigee: 35,783.7 km
Apogee: 35,802.8 km
Inclination: 0.1 °
Period: 1,436.1 minutes
Semi major axis: 42164 km
RCS: 30.9641 m2 (large)
Launch date: December 28, 1995
Source: United States (US)

Western United States to Central/Mountain region; 16 Ku-band transponders
Your satellite tracking list
Your tracking list is empty





NASA's NSSDC Master Catalog

Two Line Element Set (TLE):
1 23754U 95073A   15210.48774773 -.00000250  00000-0  00000+0 0  9998
2 23754 000.0572 260.3349 0002268 224.6018 280.3002 01.00273673 71580

Source of the keplerian elements: AFSPC

N2YO: 295